Stations météo

Publicité
Agen, France (7524): Température de l'air & dewpoint: 12.08.2017 03:00:00 - 18.08.2017 03:00:00 (CEST)Agen, France (7524): Température de l'air 5cm: 12.08.2017 03:00:00 - 18.08.2017 03:00:00 (CEST)Agen, France (7524): Température de l'air -20cm & Température de l'air -100cm: 12.08.2017 03:00:00 - 18.08.2017 03:00:00 (CEST)Agen, France (7524): Vitesse du vent & gusts: 12.08.2017 03:00:00 - 18.08.2017 03:00:00 (CEST)Agen, France (7524): Direction du vent: 12.08.2017 03:00:00 - 18.08.2017 03:00:00 (CEST)Agen, France (7524): reduced air pressure: 12.08.2017 03:00:00 - 18.08.2017 03:00:00 (CEST)Agen, France (7524): visibility: 12.08.2017 03:00:00 - 18.08.2017 03:00:00 (CEST)Agen, France (7524): Ensoleillement: 12.08.2017 03:00:00 - 18.08.2017 03:00:00 (CEST)Agen, France (7524): Quantités de précipitations: 12.08.2017 03:00:00 - 18.08.2017 03:00:00 (CEST)
Date & Time tt [°C] td [°C] tt 5cm [°C] tt -20cm [°C] tt -100cm [°C] ff [km/h] ff [knt] fx [km/h] fx [knt] dd ppp [hPa] vv [km] sd [min] rr [mm]
18.08.2017 03:00:00 17,9 14,6 12,1 20,5 19,0 4 2 9 5 WNW 1017,5 60 0 0,0
18.08.2017 02:00:00 17,6 14,3 11,9 20,6 19,0 0 0 4 2 N 1017,7 60 0 0,0
18.08.2017 01:00:00 18,1 14,0 12,6 20,6 19,0 0 0 4 2 N 1017,8 55 0 0,0
18.08.2017 00:00:00 19,0 14,5 13,3 20,6 19,0 0 0 4 2 N 1018,2 60 0 0,0
17.08.2017 23:00:00 20,2 14,1 14,2 20,6 19,0 0 0 4 2 N 1018,3 60 0 0,0
17.08.2017 22:00:00 22,2 14,6 15,7 20,6 19,0 0 0 6 4 N 1018,3 60 0 0,0
17.08.2017 21:00:00 25,6 13,4 19,6 20,5 19,0 7 4 9 5 NNW 1018,5 60 47 0,0
17.08.2017 20:00:00 29,6 13,8 27,9 20,5 19,0 3 2 19 11 NNW 1018,2 16 60 0,0
17.08.2017 19:00:00 29,9 13,2 32,3 20,4 19,0 10 5 22 12 N 1018,5 60 60 0,0
17.08.2017 18:00:00 30,5 13,7 39,6 20,2 19,0 9 5 21 12 NW 1018,7 59 60 0,0
17.08.2017 17:00:00 30,4 15,3 43,2 20,1 19,0 11 6 24 13 WNW 1019,0 60 60 0,0
17.08.2017 16:00:00 29,9 14,8 46,2 20,0 19,0 4 2 23 12 N 1019,5 56 60 0,0
17.08.2017 15:00:00 29,4 14,8 46,4 19,8 19,0 6 4 17 9 SW 1020,1 20 60 0,0
17.08.2017 14:00:00 27,7 16,0 45,6 19,8 19,0 7 4 26 14 NNW 1020,7 18 60 0,0
17.08.2017 13:00:00 26,6 16,8 42,7 19,8 19,0 9 5 18 10 WNW 1021,0 60 60 0,0
17.08.2017 12:00:00 25,3 16,4 34,5 19,8 19,0 7 4 17 9 NNW 1021,5 60 60 0,0
17.08.2017 11:00:00 23,6 15,4 28,8 19,9 19,0 4 2 8 4 NNW 1021,8 55 41 0,0
17.08.2017 10:00:00 21,8 15,9 18,3 19,9 19,0 0 0 5 3 N 1021,8 51 60 0,0
17.08.2017 09:00:00 17,9 15,9 12,8 19,9 19,0 0 0 3 2 N 1021,9 36 60 0,0
17.08.2017 08:00:00 15,0 14,0 9,3 20,0 19,0 0 0 2 1 N 1021,5 41 31 0,0
17.08.2017 07:00:00 14,1 13,0 9,2 20,1 19,0 0 0 3 2 N 1021,4 9 0 0,0
17.08.2017 06:00:00 14,3 13,2 9,4 20,2 19,0 0 0 3 2 N 1021,2 19 0 0,0
17.08.2017 05:00:00 15,0 13,4 9,9 20,3 19,0 0 0 5 3 N 1021,1 20 0 0,0
17.08.2017 04:00:00 16,1 14,6 10,9 20,3 19,0 3 2 5 3 NW 1021,2 56 0 0,0
17.08.2017 03:00:00 16,4 13,7 11,4 20,4 19,0 4 2 8 5 WSW 1021,3 47 0 0,0
17.08.2017 02:00:00 18,0 14,9 13,0 20,5 19,0 4 2 12 6 WSW 1021,6 45 0 0,0
17.08.2017 01:00:00 17,6 14,7 13,4 20,5 19,0 6 3 7 4 W 1022,2 60 0 0,0
17.08.2017 00:00:00 18,3 15,0 13,2 20,5 19,0 3 2 4 2 WNW 1022,3 60 0 0,0
16.08.2017 23:00:00 19,5 14,7 13,7 20,5 18,9 2 1 6 3 WSW 1022,0 58 0 0,0
16.08.2017 22:00:00 21,7 15,3 17,0 20,5 18,9 3 1 12 6 W 1022,1 54 0 0,0
16.08.2017 21:00:00 22,9 15,2 21,6 20,5 18,9 10 5 19 10 WNW 1021,5 60 0 0,0
16.08.2017 20:00:00 24,2 15,9 24,3 20,5 19,0 13 7 23 13 NW 1021,4 60 0 0,0
16.08.2017 19:00:00 25,5 16,4 27,7 20,4 18,9 14 7 20 11 NNW 1020,9 60 43 0,0
16.08.2017 18:00:00 26,7 16,0 30,5 20,4 18,9 13 7 22 12 NW 1020,8 60 35 0,0
16.08.2017 17:00:00 25,9 16,2 31,8 20,3 18,9 13 7 21 12 NW 1020,8 53 28 0,0
16.08.2017 16:00:00 25,8 16,4 30,6 20,2 18,9 6 4 19 10 WNW 1021,0 50 13 0,0
16.08.2017 15:00:00 24,2 16,5 30,7 20,2 18,9 10 5 16 9 NW 1021,3 46 0 0,0
16.08.2017 14:00:00 24,2 17,2 31,5 20,2 18,9 11 6 18 10 WNW 1021,5 52 0 0,0
16.08.2017 13:00:00 22,9 16,7 28,8 20,2 18,9 6 3 16 8 NW 1021,6 38 0 0,0
16.08.2017 12:00:00 21,5 16,7 24,8 20,2 18,9 9 5 15 8 NW 1021,8 55 0 0,0
16.08.2017 11:00:00 20,3 16,1 20,6 20,2 18,9 10 6 15 8 WNW 1021,6 58 0 0,0
16.08.2017 10:00:00 19,6 15,9 20,5 20,2 18,9 9 5 12 6 WNW 1021,6 60 0 0,0
16.08.2017 09:00:00 19,7 15,1 19,4 20,3 18,9 6 4 10 6 WNW 1021,4 60 0 0,0
16.08.2017 08:00:00 19,3 15,4 18,6 20,3 18,9 8 4 10 6 WNW 1021,2 10 0 0,0
16.08.2017 07:00:00 19,3 15,6 18,7 20,3 18,9 6 4 12 7 NW 1020,6 19 0 0,0
16.08.2017 06:00:00 19,7 16,5 19,1 20,4 18,9 9 5 18 10 NNW 1020,2 53 0 0,0
16.08.2017 05:00:00 20,0 17,2 19,4 20,4 18,9 9 5 13 7 NW 1020,3 39 0 0,0
16.08.2017 04:00:00 20,4 17,4 19,6 20,4 18,9 6 4 16 8 NW 1020,5 41 0 0,0
16.08.2017 03:00:00 20,7 17,3 19,7 20,4 18,9 8 5 13 7 NNW 1020,8 43 0 0,0
16.08.2017 02:00:00 20,8 17,4 19,2 20,5 18,9 9 5 18 10 NW 1021,3 43 0 0,0
16.08.2017 01:00:00 21,2 18,2 20,4 20,4 18,9 9 5 12 7 WNW 1021,4 26 0 0,0
16.08.2017 00:00:00 21,6 18,4 19,6 20,5 18,9 7 4 10 5 WNW 1021,6 24 0 0,0
15.08.2017 23:00:00 21,9 18,1 19,5 20,5 18,9 4 2 8 5 WNW 1021,1 29 0 0,0
15.08.2017 22:00:00 22,5 17,8 20,4 20,5 18,9 3 2 9 5 NNW 1020,6 19 0 0,0
15.08.2017 21:00:00 22,4 17,7 20,9 20,4 18,8 8 4 20 11 WNW 1019,6 19 0 0,0
15.08.2017 20:00:00 24,2 17,9 24,3 20,4 18,8 14 7 21 11 NW 1019,2 35 1 0,0
15.08.2017 19:00:00 25,5 18,2 26,2 20,3 18,8 11 6 16 9 NW 1019,0 46 19 0,0
15.08.2017 18:00:00 25,8 18,0 27,5 20,2 18,8 11 6 17 9 WNW 1019,2 44 0 0,0
15.08.2017 17:00:00 26,5 18,4 27,3 20,2 18,8 9 5 20 11 NW 1018,9 45 15 0,0
15.08.2017 16:00:00 24,5 18,9 27,3 20,2 18,9 13 7 23 13 WNW 1019,0 33 19 0,0
15.08.2017 15:00:00 23,6 20,1 22,4 20,2 18,8 9 5 20 11 N 1018,3 20 0 0,0
15.08.2017 14:00:00 23,1 20,6 22,4 20,1 18,8 15 8 22 12 E 1017,7 12 0 0,0
15.08.2017 13:00:00 22,7 19,5 21,1 20,1 18,9 10 5 21 11 SW 1019,2 19 0 0,2
15.08.2017 12:00:00 22,1 19,5 21,0 20,1 18,9 11 6 20 11 E 1017,9 17 0 0,6
15.08.2017 11:00:00 23,4 18,3 25,6 20,1 18,8 9 5 16 9 SW 1018,3 33 0 0,0
15.08.2017 10:00:00 23,8 17,8 23,0 20,1 18,9 7 4 19 10 SSW 1017,8 46 43 0,0
15.08.2017 09:00:00 22,9 17,8 17,4 20,2 18,8 5 3 12 6 SE 1017,5 35 49 0,0
15.08.2017 08:00:00 21,1 17,9 17,4 20,2 18,8 3 2 34 18 SW 1017,6 32 0 0,0
15.08.2017 07:00:00 21,0 18,8 18,4 20,2 18,9 24 13 39 21 ESE 1015,3 26 0 0,0
15.08.2017 06:00:00 21,1 18,7 18,7 20,2 18,8 7 4 14 8 SE 1017,7 31 0 0,0
15.08.2017 05:00:00 21,8 18,8 18,5 20,2 18,8 2 1 11 6 NE 1018,1 39 0 0,0
15.08.2017 04:00:00 22,4 18,6 19,7 20,2 18,8 6 3 32 17 NNW 1017,0 44 0 0,0
15.08.2017 03:00:00 22,4 18,4 19,1 20,2 18,8 10 6 16 9 SSE 1016,7 49 0 0,0
15.08.2017 02:00:00 22,3 19,3 20,4 20,2 18,9 10 6 14 7 E 1017,0 30 0 0,2
15.08.2017 01:00:00 23,8 18,0 21,1 20,2 18,8 8 5 40 21 E 1016,7 54 0 0,0
15.08.2017 00:00:00 24,8 16,8 22,1 20,2 18,8 16 9 31 17 ESE 1014,7 60 0 0,0
14.08.2017 23:00:00 25,8 16,4 22,1 20,2 18,8 21 11 33 18 SE 1013,6 60 0 0,0
14.08.2017 22:00:00 27,3 16,3 22,8 20,1 18,8 19 10 36 19 SE 1013,4 60 0 0,0
14.08.2017 21:00:00 29,0 15,2 24,8 20,0 18,9 14 8 27 15 SE 1012,7 60 23 0,0
14.08.2017 20:00:00 32,1 14,7 29,6 19,9 18,8 18 10 35 19 SE 1012,0 57 60 0,0
14.08.2017 19:00:00 34,3 13,2 34,4 19,8 18,9 19 10 31 17 SE 1011,9 60 60 0,0
14.08.2017 18:00:00 35,3 13,5 41,0 19,6 18,8 19 10 32 18 SE 1011,9 53 60 0,0
14.08.2017 17:00:00 35,5 13,6 44,3 19,5 18,9 21 11 31 17 ESE 1012,1 49 60 0,0
14.08.2017 16:00:00 34,2 16,1 44,8 19,3 18,8 18 10 29 15 E 1012,7 46 60 0,0
14.08.2017 15:00:00 32,9 16,7 45,2 19,2 18,8 16 8 27 15 ESE 1013,4 55 60 0,0
14.08.2017 14:00:00 31,1 15,9 43,3 19,1 18,9 15 8 27 15 E 1014,2 45 60 0,0
14.08.2017 13:00:00 29,1 17,3 43,1 19,1 18,8 16 9 29 16 E 1014,6 53 60 0,0
14.08.2017 12:00:00 27,7 16,3 35,9 19,1 18,9 18 10 27 15 ESE 1015,1 58 60 0,0
14.08.2017 11:00:00 24,7 16,7 31,4 19,0 18,8 16 9 24 13 E 1015,5 60 60 0,0
14.08.2017 10:00:00 22,2 16,5 19,6 19,1 18,9 13 7 21 11 ESE 1016,0 60 60 0,0
14.08.2017 09:00:00 19,0 16,0 16,2 19,1 18,9 12 6 19 11 ESE 1016,3 50 60 0,0
14.08.2017 08:00:00 16,9 15,6 10,8 19,2 18,9 10 5 16 9 ESE 1016,3 37 40 0,0
14.08.2017 07:00:00 15,7 14,9 10,5 19,2 18,9 4 2 8 5 ESE 1016,2 35 0 0,0
14.08.2017 06:00:00 15,5 14,2 10,3 19,3 18,9 5 3 9 5 ESE 1016,3 45 0 0,0
14.08.2017 05:00:00 14,9 13,4 10,2 19,4 18,9 6 3 7 4 ESE 1016,8 60 0 0,0
14.08.2017 04:00:00 16,0 13,8 10,5 19,4 18,9 0 0 4 2 N 1016,8 60 0 0,0
14.08.2017 03:00:00 16,8 14,3 11,0 19,5 18,9 2 1 4 2 E 1017,1 60 0 0,0
14.08.2017 02:00:00 17,3 14,2 11,7 19,5 18,9 0 0 3 1 N 1017,3 60 0 0,0
14.08.2017 01:00:00 18,3 14,6 12,2 19,6 18,9 0 0 3 2 N 1017,6 60 0 0,0
14.08.2017 00:00:00 20,1 14,7 13,0 19,6 18,9 0 0 5 3 N 1017,8 60 0 0,0
13.08.2017 23:00:00 19,7 14,1 13,6 19,5 18,9 0 0 4 2 N 1017,8 60 0 0,0
13.08.2017 22:00:00 22,8 14,6 15,2 19,5 18,9 3 2 8 5 SW 1017,7 60 0 0,0
13.08.2017 21:00:00 26,1 13,6 21,5 19,4 18,9 8 4 14 7 NNE 1017,3 60 46 0,0
13.08.2017 20:00:00 27,5 13,4 26,8 19,3 18,9 10 5 16 9 N 1017,4 60 60 0,0
13.08.2017 19:00:00 28,4 13,9 30,6 19,2 18,9 9 5 15 8 NNE 1017,5 57 60 0,0
13.08.2017 18:00:00 28,3 13,8 35,9 19,1 18,9 9 5 21 11 N 1017,9 60 60 0,0
13.08.2017 17:00:00 28,1 13,2 36,3 19,0 18,9 11 6 21 11 N 1018,3 45 60 0,0
13.08.2017 16:00:00 28,1 14,0 44,0 18,8 18,9 8 4 20 11 NNW 1018,7 60 60 0,0
13.08.2017 15:00:00 27,1 13,8 44,6 18,7 18,9 9 5 19 10 NW 1019,4 19 60 0,0
13.08.2017 14:00:00 26,3 13,1 42,2 18,7 18,9 4 2 15 8 NE 1020,0 18 60 0,0
13.08.2017 13:00:00 25,0 13,5 39,1 18,6 18,9 7 4 15 8 N 1020,8 60 60 0,0
13.08.2017 12:00:00 24,5 14,0 33,1 18,6 18,9 3 2 11 6 W 1021,3 60 60 0,0
13.08.2017 11:00:00 22,5 14,6 29,0 18,6 18,9 4 2 9 5 NNW 1021,8 57 60 0,0
13.08.2017 10:00:00 20,4 14,7 17,8 18,6 19,0 3 1 6 4 NNW 1021,7 49 60 0,0
13.08.2017 09:00:00 17,5 13,8 13,2 18,7 19,0 2 1 6 4 NW 1021,9 37 60 0,0
13.08.2017 08:00:00 15,0 13,7 9,0 18,7 19,0 0 0 3 1 N 1021,6 30 42 0,0
13.08.2017 07:00:00 13,8 12,5 9,0 18,8 19,0 0 0 0 0 N 1021,2 18 0 0,0
13.08.2017 06:00:00 13,9 12,1 9,1 18,8 19,0 0 0 3 2 N 1021,3 33 0 0,0
13.08.2017 05:00:00 14,7 12,9 9,9 18,9 19,0 2 1 4 2 W 1021,6 42 0 0,0
13.08.2017 04:00:00 15,9 12,6 10,7 18,9 19,0 4 2 6 3 W 1021,8 50 0 0,0
13.08.2017 03:00:00 16,6 13,5 12,6 18,9 19,0 3 1 9 5 NW 1021,9 55 0 0,0
13.08.2017 02:00:00 17,0 13,9 14,1 18,9 19,0 7 4 11 6 WNW 1022,2 56 0 0,0
13.08.2017 01:00:00 17,7 13,6 14,3 18,9 19,0 2 1 5 3 E 1022,5 60 0 0,0
13.08.2017 00:00:00 18,1 13,2 13,9 18,9 19,0 2 1 6 3 ESE 1022,6 60 0 0,0
12.08.2017 23:00:00 19,1 13,1 15,1 18,9 19,0 2 1 3 2 ESE 1022,7 60 0 0,0
12.08.2017 22:00:00 20,6 12,0 15,0 18,9 19,0 0 0 12 7 N 1022,7 60 0 0,0
12.08.2017 21:00:00 21,9 12,4 17,7 18,8 19,0 7 4 13 7 NNE 1022,3 60 11 0,0
12.08.2017 20:00:00 22,9 12,5 21,0 18,8 19,1 8 4 19 11 N 1022,2 60 44 0,0
12.08.2017 19:00:00 24,6 12,5 28,3 18,7 19,0 10 5 22 12 NNW 1022,0 54 60 0,0
12.08.2017 18:00:00 25,0 12,2 32,3 18,5 19,0 11 6 22 12 N 1022,2 60 60 0,0
12.08.2017 17:00:00 24,9 11,8 37,3 18,4 19,0 7 4 19 10 W 1022,5 59 60 0,0
12.08.2017 16:00:00 24,3 11,6 40,8 18,3 19,1 6 4 19 10 NE 1023,0 20 60 0,0
12.08.2017 15:00:00 23,8 11,5 40,2 18,2 19,0 10 5 22 12 N 1023,4 60 60 0,0
12.08.2017 14:00:00 22,9 11,0 35,2 18,2 19,1 9 5 24 13 NW 1024,2 48 57 0,0
12.08.2017 13:00:00 21,4 11,1 35,3 18,1 19,1 11 6 22 12 WNW 1024,7 19 58 0,0
12.08.2017 12:00:00 20,5 11,1 28,3 18,1 19,1 8 5 28 15 NW 1025,0 58 54 0,0
12.08.2017 11:00:00 19,2 11,7 27,4 18,2 19,1 6 3 13 7 NW 1025,2 47 60 0,0
12.08.2017 10:00:00 17,2 12,1 14,3 18,2 19,1 3 1 5 3 NNE 1025,0 44 60 0,0
12.08.2017 09:00:00 14,4 11,5 8,5 18,3 19,1 0 0 6 3 N 1025,1 41 60 0,0
12.08.2017 08:00:00 11,3 10,4 4,3 18,4 19,1 0 0 2 1 N 1024,6 34 48 0,0
12.08.2017 07:00:00 9,1 7,9 4,3 18,4 19,1 0 0 4 2 N 1024,6 3,8 0 0,0
12.08.2017 06:00:00 10,3 8,9 4,5 18,6 19,1 0 0 4 2 N 1024,2 34 0 0,0
12.08.2017 05:00:00 10,6 9,4 4,9 18,6 19,1 0 0 4 2 N 1024,3 46 0 0,0
12.08.2017 04:00:00 10,7 8,8 5,0 18,7 19,1 0 0 2 1 N 1024,6 45 0 0,0
12.08.2017 03:00:00 11,6 9,2 5,6 18,7 19,1 0 0 5 3 N 1024,6 59 0 0,0

tt = Température de l'air
td = dewpoint
tt 5cm = Température de l'air 5cm
tt -20cm = Température de l'air -20cm
tt -100cm = Température de l'air -100cm
ff = Vitesse du vent
fx = gusts
dd = Direction du vent
ppp = reduced air pressure
vv = visibility
sd = Ensoleillement
rr = Quantités de précipitations

stations d'obs. à proximité